TITAN 3C TRANSTAGE DEB, 1671

Orbit data source: Space-Track

TITAN 3C TRANSTAGE DEB, 1671 is space debris in LEO originally from a launch on Fri, 15 Oct 1965 UTC launched from the Air Force Eastern Test Range (AFETR). Debris objects in space refer to the collection of defunct objects orbiting the Earth. Examples of debris include non-operational satellites, rocket bodies, and fragments generated from explosions, collisions, or faulty payload assembly.

Loading next visibility...
Identifier
1671, 1965-082AJ
Orbit
LEO
Last TLE update
13 hours ago
Origin
Manufacturer
Unknown
Mission
Spacecraft
Bus & Motor
Unknown
Mass
Unknown
Launch date (UTC)
1965-10-15 (60 years ago)
Launch vehicle
Unknown
Launch site
Air Force Eastern Test Range (AFETR)
Object type
Payload
Rocket body
Debris
Shape & HBR
Unknown
Radar Cross Section
Medium (>0.1 m² and <1 m²)

Expand to show TLE details & history

TLE from 13 hours ago
0 TITAN 3C TRANSTAGE DEB
1 01671U 65082AJ  25191.48240161  .00000235  00000-0  46301-4 0  9998
2 01671  32.1601 246.3968 0052320  71.4569 289.1750 14.53633627136633
Epoch: 2025-07-10T11:34Z
TLE epoch observation values (Epoch: 2025-07-10T11:34:39.499Z)
Latitude
0.00005°
Longitude
144.08425°
Altitude
700.453 km
Speed
7.514 km/s
True Right ascension
16h 25m 35s
True Declination
0° 00' 00"
Sunlit
Object was in full shadow at epoch
Visualization orbit readout
Latitude
-28.28451°
Longitude
82.60463°
Altitude
747.831 km
Speed
7.467 km/s
Apparent Right ascension
10h 56m 17s
Apparent Declination
-78° 31' 08"
Sunlit
Object is in daylight
Visualization observer readout
Local Sidereal Time
12:44:50
Azimuth
185.99° SSW
Elevation
-29.536°
Doppler factor
1
Orbital elements
Apogee altitude
754.506 km
Perigee altitude
680.258 km
Semi-major axis
7,095.519 km
Eccentricity
0.00523
Inclination
32.1601°
RAAN
246.3968°
Arg. of periapsis
71.4569°
True anomaly
Unknown
Mean anomaly
289.175°
Eccentric anomaly
Unknown
Mean motion
3.63134 °/min
Orbital period
99.14 mins
BSTAR
0.000046301
Loading maneuver chart data...
Loading SW <> Apogee altitude chart data...

TITAN 3C TRANSTAGE DEB Visibility forecast

Observer location: undefined°, undefined°

Span
Click to sort rows by Start time (UTC) header in descending order
Start Az.
Max El. time (UTC)
Max El. Az.
Max El.
End time (UTC)
End Az.
7 mins2025-07-11 07:35:36.208Z210.369° SW2025-07-11 07:39:36.208Z155.522° SSE19.619°2025-07-11 07:42:36.208Z115.948° SE
7 mins2025-07-11 09:20:36.208Z229.866° WSW2025-07-11 09:23:36.208Z176.457° S28.205°2025-07-11 09:27:36.208Z115.909° SE
6 mins2025-07-11 11:05:36.208Z234.214° WSW2025-07-11 11:07:36.208Z200.881° SSW24.386°2025-07-11 11:11:36.208Z138.199° SSE
|